Regional Weather Roundup
Issued by NWS Grand Forks, ND

Home | Current Version | Previous Version | Text Only | Print | Product List | Glossary Off
Versions: 1 2 3 4 5 6 7 8 9 10 11 12 13 14 15 16 17 18 19 20 21 22 23 24 25 26 27 28 29 30 31 32 33 34 35 36 37 38 39 40 41 42 43 44 45 46 47 48 49 50

000
ASUS43 KFGF 070531
RWRFGF
PRAIRIE TO PINES  WEATHER ROUNDUP
NATIONAL WEATHER SERVICE EASTERN NORTH DAKOTA/GRAND FORKS ND
1100 PM CST SAT FEB 06 2016

 **SATELLITE DATA USED TO AUGMENT SKY COVER AT AUTOMATED STATIONS**
 *****  WEATHER ACROSS EASTERN NORTH DAKOTA  *****

CITY           SKY/WX    TMP DP  RH WIND       PRES   REMARKS
GRAND FORKS    CLOUDY    40  31  70 W16       29.46F
GRAND FRKS AFB CLOUDY    40  32  72 W17G24    29.47F
GRAND FRKS NWS   N/A     37 N/A N/A W13         N/A
DEVILS LAKE    LGT RAIN  34  32  93 W30G36    29.51S WCI  20
FARGO          CLOUDY    39  31  72 SW18      29.56F
WAHPETON ARPT  CLEAR     36  30  80 SW15      29.61F
$$

 ***** WEATHER ACROSS CENTRAL AND WESTERN NORTH DAKOTA  *****

CITY           SKY/WX    TMP DP  RH WIND       PRES   REMARKS
BISMARCK       CLEAR     43  25  49 W22G35    29.76R
MINOT          LGT RAIN  40  23  50 W31G47    29.63R
JAMESTOWN      CLOUDY    37  32  82 W22G35    29.60S
MINOT AFB      CLOUDY    37  27  66 NW32G40   29.61R
GARRISON         N/A     37  21  52 NW33G44   29.69S
WILLISTON      CLEAR     36  26  67 W18       29.81R
DICKINSON      PTCLDY    34  22  61 W24G32    29.82R WCI  21
HETTINGER      PTCLDY    35  21  56 W23G32    29.90R WCI  23
$$

 *****  OTHER AIRPORT OBSERVATIONS IN OUR AREA  *****

CITY           SKY/WX    TMP DP  RH WIND       PRES   REMARKS
WALHALLA       FAIR      37  36  93 W14G20    29.40S
GRAFTON AIRPOR CLOUDY    37  34  87 W17G24    29.45F
VALLEY CITY AR FLURRIES  37  37 100 W36G43    29.59S
CANDO          FLURRIES  34  32  93 W25G33    29.51S WCI  21
CAVALIER APRT  MOCLDY    37  32  81 W17G23    29.41F
GWINNER        FAIR      39  32  75 W25       29.63S
SHEYENNE NWR     N/A     38  32  79 W13       29.95S
ROLLA          FLURRIES  34  32  93 NW33G41   29.47S WCI  19
 ***** THE ABOVE OBSERVATIONS ARE NON NWS ARE NOT QUALITY
       CONTROLLED AND MAY MIS-REPORT RAIN FOR SNOW...
$$

  *****  WEATHER ACROSS NORTHERN MINNESOTA  *****

CITY           SKY/WX    TMP DP  RH WIND       PRES   REMARKS
FLAG ISLAND    CLOUDY    32  28  86 SE9       29.39F WCI  24
WARROAD        CLOUDY    37  34  87 SW8       29.40F
ROSEAU         MOCLDY    39  34  81 SW13      29.40F
HALLOCK        PTCLDY    36  30  80 SW13      29.40F
THF RVR FALLS  MOCLDY    36  30  80 S13       29.47F
BAUDETTE       CLOUDY    35  29  78 SW8       29.43F
WASKISH        CLOUDY    36  34  93 S6        29.46F
CROOKSTON      CLOUDY    36  32  87 SW10      29.49F
STEPHEN NDAWN    N/A     37  32  81 SW13        N/A
GREENBUSH NDAW   N/A     37  30  75 SW14        N/A
$$
  *****  WEATHER ACROSS CENTRAL AND WEST MINNESOTA  *****

CITY           SKY/WX    TMP DP  RH WIND       PRES   REMARKS
FOSSTON        CLOUDY    34  30  86 SW14      29.51F WCI  24
BEMIDJI        CLEAR     35  32  89 S6        29.51F
PARK RAPIDS    CLEAR     36  32  85 SW9       29.56F
ELBOW LAKE     FAIR      34  32  93 S12       29.62F FOG
WADENA         PTCLDY    34  32  93 SW7       29.60S
DETROIT LAKES  CLOUDY    36  34  93 SW14      29.56F
MOORHEAD       CLOUDY    37  30  75 SW14      29.58S
FERGUS FALLS   CLEAR     34  34 100 S8        29.63F
MORRIS MN      LGT RAIN  36  32  87 S7        29.64F
STAPLES        PTCLDY    34  30  86 SW13G18   29.61F WCI  25
$$
  *****  WEATHER ELSEWHERE ACROSS MINNESOTA  *****

CITY           SKY/WX    TMP DP  RH WIND       PRES   REMARKS
DULUTH         LGT SNOW  31  28  89 SW10      29.61F FOG     WCI  22
INTRNTL FALLS  CLOUDY    32  30  92 S6        29.47F
ELY            LGT SNOW  30  28  93 S6        29.56F WCI  24
CLOQUET        LGT SNOW  32  28  86 S10       29.62F WCI  24
WHEATON        CLEAR     37  34  87 SW12      29.66F
BRAINERD       CLOUDY    34  31  88 S14       29.62F WCI  25
HIBBING        CLOUDY    30  29  96 SE6       29.55F WCI  24
ALEXANDRIA     CLOUDY    34  30  85 SW16      29.69R WCI  24
SAINT CLOUD    CLOUDY    33  29  85 S12       29.68F WCI  24
MINNEAPOLIS    CLOUDY    35  28  75 S15       29.71F
$$

  *****  WEATHER ACROSS SOUTH DAKOTA  *****

CITY           SKY/WX    TMP DP  RH WIND       PRES   REMARKS
SIOUX FALLS    CLOUDY    37  29  72 W8        29.82F
BROOKINGS      PTCLDY    38  29  70 W18       29.75F
WATERTOWN      CLEAR     37  26  64 W17       29.72F
HURON          MOCLDY    39  29  67 W15       29.80F
SISSETON         N/A     39  29  67 W16       29.65F
ABERDEEN       CLEAR     41  25  53 W15G25    29.73S
MITCHELL       CLOUDY    41  30  65 W18       29.85R
PIERRE         CLEAR     40  25  55 W21       29.88R
MOBRIDGE       CLEAR     42  27  55 NW25G38   29.77S
RAPID CITY     PTCLDY    38  19  46 NW25G36   30.01R
$$

  *****  SOME WEATHER IN NEARBY STATES *****

CITY           SKY/WX    TMP DP  RH WIND       PRES   REMARKS
GLASGOW MT     CLOUDY    31  30  96 W10       29.95F WCI  22
GREAT FALLS MT CLEAR     30  17  58 W16       30.20R WCI  19
CHEYENNE WY    CLOUDY    37  16  42 NW14      30.10R
SCOTTSBLUFF NE CLOUDY    35  24  64 NW13      30.12R
OMAHA NE       CLOUDY    39  27  62 S8G17     29.92F
DES MOINES IA  CLOUDY    39  28  64 SW14      29.94F
DAVENPORT IA   PTCLDY    36  29  75 S9        30.03F
CHICAGO IL     PTCLDY    32  28  85 S6        30.05F
EAU CLAIRE WI  LGT SNOW  31  26  82 S10       29.82F WCI  22
LA CROSSE WI   CLOUDY    31  26  82 SE10      29.90F WCI  22
$$

  *****  SOME NATIONAL WEATHER *****

CITY           SKY/WX    TMP DP  RH WIND       PRES   REMARKS
LA GUARDIA NY  PTCLDY    38  23  55 SW7       30.26F
RALEIGH NC     CLOUDY    39  23  52 S3        30.27R
ATLANTA GA     PTCLDY    36  21  54 NW8       30.20F
NEW ORLEANS LA CLEAR     45  30  55 CALM      30.29F
OKLAHOMA CITY  CLEAR     33  26  75 S10       30.24F WCI  25
ALBUQUERQUE NM CLEAR     41  12  30 N16       30.36F
SALT LAKE CITY PTCLDY    28  22  78 SE6       30.47R WCI  22
LOS ANGELES CA CLEAR     64  28  25 CALM      30.16R
BOISE ID       CLEAR     33  30  88 CALM      30.46R
SEATTLE WA     PTCLDY    42  37  82 CALM      30.47R
$$

*** WEATHER ACROSS MANITOBA...SASKATCHEWAN AND ONTARIO ***
                ***ONTARIO***

CITY           SKY/WX    TMP DP  RH WIND       PRES   REMARKS
GERALDTON      FLURRIES  -4  -9  77 E12       29.90F WCI -22
THUNDER BAY    LGT SNOW  25  25 100 E17       29.73F WCI  11
SIOUX LOOKOUT  LGT SNOW  14  10  85 SE8       29.58F DRFTSNOWWCI   3
TORONTO        PTCLDY    30  21  69 SW5       30.10F
BIG TROUT LK   CLEAR    -18 -26  69 E7        29.96F WCI -35
PICKLE LAKE    NOT AVBL
DRYDEN         LGT SNOW  23  21  93 E10G22    29.51F WCI  12
KENORA         LGT SNOW  27  27 100 SE10G18   29.43F DRFTSNOWWCI  17
$$
                *** MANITOBA***

CITY           SKY/WX    TMP DP  RH WIND       PRES   REMARKS
BRANDON        LGT RAIN  34  32  93 NW24G33   29.44R WCI  21
DAUPHIN        LGT SNOW  28  27  93 W7        29.44R WCI  21
ISLAND LAKE    FLURRIES   0  -6  78 E8G17     29.69F WCI -15
PILOT MOUND      N/A     36  34  93 NW16G24     N/A
THE PAS        LGT SNOW  10   9  92 NE3       29.51S
THOMPSON       LGT SNOW  -6 -11  77 E10G17    29.70F DRFTSNOWWCI -23
WINNIPEG       CLOUDY    30  27  86 SW9       29.34F WCI  22
LYNN LAKE      LGT SNOW  -6  -9  84 E8        29.66R WCI -21
CHURCHILL      MOCLDY   -24 -29  76 SE8       30.11S WCI -43
$$
                ***SASKATCHEWAN***

CITY           SKY/WX    TMP DP  RH WIND       PRES   REMARKS
ESTEVAN        NOT AVBL
KINDERSLEY     CLOUDY    32  21  64 NW33G46   29.86R WCI  17
LLOYDMINSTER   FLURRIES  30  21  69 NW30G41   29.82R WCI  15
PRINCE ALBERT  FLURRIES  34  23  64 NW33G45   29.56R WCI  19
REGINA         PTCLDY    36  23  60 W32G44    29.68S
YORKTON        CLOUDY    36  28  75 NW20G28   29.48F
N. BATTLEFORD  FLURRIES  30  27  86 NW25G39   29.78R WCI  16
LA RONGE       LGT SNOW  14  12  92 NW12      29.63R VSB 1   WCI   0
SASKATOON      CLOUDY    34  28  80 NW32G41   29.65R WCI  20
SWIFT CURRENT  LGT RAIN  34  19  55 NW40G54   29.82R WCI  18
$$
NOTE: THESE ARE AUTOMATED STATIONS WITH LIMITED QUALITY CONTROL
      "FAIR" INDICATES FEW OR NO CLOUDS BELOW 12,000 FEET WITH NO
      SIGNIFICANT WEATHER AND/OR OBSTRUCTIONS TO VISIBILITY.
      SKY/WX - SKY CONDITION AND SIGNIFICANT WEATHER.
      TMP - AIR TEMPERATURE.    DP   - DEWPOINT TEMPERATURE.
      RH  - RELATIVE HUMIDITY.  PRES - PRESSURE.
      HX  - HEAT INDEX.         WCI  - WIND CHILL INDEX.
$



USA.gov is the U.S. government's official web portal to all federal, state and local government web resources and services.